Location: Gleizolles
(44.4833°N, 6.7667°E)
Time: 21:38:51
(UTC+00:00)

Tiros 1 despin weight - Pass Details

Date: 28 June 2024
Orbit: 576 x 620 km, 48.2° (Epoch: 19 July)

Event Time Altitude Azimuth Distance (km) Brightness Sun altitude
Rises 13:58:38 0° 291° (WNW) 2,897 ? 54.1°
Reaches altitude 10° 14:00:57 10° 292° (WNW) 1,990 ? 53.7°
Maximum altitude 14:05:32 87° 22° (NNE) 625 ? 52.9°
Drops below altitude 10° 14:10:06 10° 112° (ESE) 1,974 ? 52.2°
Sets 14:12:24 0° 112° (ESE) 2,873 ? 51.8°
